Location: Cruquius
(52.3348°N, 4.6319°E)
Time: 12:19:00
(UTC+00:00)

Sich 1 Rocket - Pass Details

Date: 12 May 2021
Orbit: 615 x 653 km, 82.5° (Epoch: 19 June)

Event Time Altitude Azimuth Distance (km) Brightness Sun altitude
Rises 23:17:31 0° 351° (N) 2,985 8.7 -19.1°
Reaches altitude 10° 23:19:50 10° 356° (N) 2,065 7.5 -19.2°
Maximum altitude 23:24:21 56° 75° (ENE) 774 4.0 -19.2°
Enters shadow 23:26:02 35° 136° (SE) 1,050 4.3 -19.2°
